If you wish to contribute or participate in the discussions about articles you are invited to join SKYbrary as a registered user

 Actions

Difference between revisions of "YMAV"

From SKYbrary Wiki

YMAV
m
m
 
Line 2: Line 2:
 
|Airport_Name=Avalon Airport
 
|Airport_Name=Avalon Airport
 
|ICAO_Region=APAC
 
|ICAO_Region=APAC
|ICAO_Territory=YM
+
|ICAO_Territory=Y
 
|IATA Code=AVV
 
|IATA Code=AVV
 
|Elevation=10.668000000000001
 
|Elevation=10.668000000000001

Latest revision as of 13:31, 6 December 2018

Airport
ICAO: YMAV – IATA: AVV
Summary
Name Avalon Airport
Region Asia and Pacific
Territory Australia AU.gif
Location , Victoria
Serving Avalon
Elevation 10.668 m
35 ft
35 ft10.668 m
Type medium airport
Coordinates 38° 2' 21.98" S, 144° 28' 9.98" E
Runways
Designator Length Width Surface ROPS
18/36 3048 m10,000 ft
45 m147.638 ft
ASP yes/yes


METAR
Observation YMAV 071730Z AUTO 29004KT 4500 // BKN014 OVC024 OVC033 12/12 Q1022
Station Avalon, Avalon Airport
Date/Time 07 April 2020 17:30:00
Wind direction 290°
Wind speed 04 kts
Lowest cloud amount broken clouds
Temperature 12°C
Dew point 12°C
Humidity 100%
QNH 1022 hPa
Weather condition n/a